CW0609 Weather Reports


time (UTC)temp
C
wind
direction
speed
KPH
gust
KPH
rain 1hr
cm
rain 24hr
cm
rain mn
cm
humidity
%
barometer
mb
20260510161555 27 163 1.6 6.4 0.00 0.00 0.00 39 1014.3
20260510160054 27 259 1.6 3.2 0.00 0.00 0.00 47 1014.4
20260510154554 26 100 1.6 3.2 0.00 0.00 0.00 47 1014.5
20260510153056 26 0 0.0 0.0 0.00 0.00 0.00 49 1014.6
20260510151556 25 132 1.6 3.2 0.00 0.00 0.00 52 1014.7
20260510150058 23 0 0.0 1.6 0.00 0.00 0.00 59 1014.9
20260510144555 23 0 0.0 1.6 0.00 0.00 0.00 59 1014.9
20260510143055 22 208 0.0 3.2 0.00 0.00 0.00 58 1014.7
20260510141557 21 0 0.0 1.6 0.00 0.00 0.00 61 1014.6
20260510140054 21 233 0.0 0.0 0.00 0.00 0.00 70 1014.5
20260510134556 20 131 0.0 3.2 0.00 0.00 0.00 77 1014.4
20260510133055 19 0 0.0 1.6 0.00 0.00 0.00 78 1014.5
20260510131555 17 133 0.0 0.0 0.00 0.00 0.00 81 1014.6
20260510130058 17 0 0.0 0.0 0.00 0.00 0.00 88 1014.2
20260510124609 16 0 0.0 0.0 0.00 0.00 0.00 90 1014.2
20260510123053 15 0 0.0 0.0 0.00 0.00 0.00 92 1014.2
20260510121555 13 0 0.0 0.0 0.00 0.00 0.00 93 1014.0
20260510120054 12 0 0.0 0.0 0.00 0.00 0.00 92 1013.9
20260510114601 11 0 0.0 0.0 0.00 0.00 0.00 93 1013.7
20260510113053 11 0 0.0 0.0 0.00 0.00 0.00 92 1013.6
20260510111558 11 0 0.0 0.0 0.00 0.00 0.00 92 1013.2
20260510110055 11 0 0.0 0.0 0.00 0.00 0.00 92 1013.2
20260510104559 11 0 0.0 0.0 0.00 0.00 0.00 92 1012.9
20260510103056 11 0 0.0 0.0 0.00 0.00 0.00 91 1012.7
20260510101557 11 0 0.0 0.0 0.00 0.00 0.00 91 1012.5
20260510094553 11 0 0.0 0.0 0.00 0.00 0.00 91 1011.9
20260510093101 12 0 0.0 0.0 0.00 0.00 0.00 91 1011.8
20260510091553 12 0 0.0 0.0 0.00 0.00 0.00 91 1011.8
20260510090054 12 0 0.0 0.0 0.00 0.00 0.00 91 1011.7
20260510084553 13 0 0.0 0.0 0.00 0.00 0.00 91 1011.6
20260510083103 13 0 0.0 0.0 0.00 0.00 0.00 91 1011.5
20260510081553 13 0 0.0 0.0 0.00 0.00 0.00 90 1011.5
20260510080058 13 0 0.0 0.0 0.00 0.00 0.00 90 1011.4
20260510074600 14 0 0.0 0.0 0.00 0.00 0.00 90 1011.3
20260510073107 14 0 0.0 0.0 0.00 0.00 0.00 90 1011.3
20260510071556 15 0 0.0 0.0 0.00 0.00 0.00 89 1011.2
20260510070057 15 0 0.0 0.0 0.00 0.00 0.00 89 1011.3
20260510064554 15 0 0.0 0.0 0.00 0.00 0.00 89 1011.3
20260510063057 15 0 0.0 1.6 0.00 0.00 0.00 89 1011.3
20260510061558 15 0 0.0 0.0 0.00 0.00 0.00 89 1011.4
20260510060055 15 0 0.0 0.0 0.00 0.00 0.00 89 1011.5
20260510054600 15 0 0.0 0.0 0.00 0.00 0.00 88 1011.5
20260510053053 15 0 0.0 0.0 0.00 0.00 0.00 88 1011.6
20260510051602 15 0 0.0 0.0 0.00 0.00 0.00 87 1011.6
20260510050057 15 0 0.0 0.0 0.00 0.00 0.00 87 1011.7
20260510044554 15 0 0.0 0.0 0.00 0.00 0.00 86 1011.6
20260510043059 15 0 0.0 0.0 0.00 0.00 0.00 86 1011.7
20260510041556 15 0 0.0 0.0 0.00 0.00 0.00 85 1011.6
20260510040058 15 0 0.0 0.0 0.00 0.00 0.00 85 1011.5
20260510034554 15 0 0.0 0.0 0.00 0.00 0.00 85 1011.4
20260510033122 15 0 0.0 0.0 0.00 0.00 0.00 84 1011.3
20260510031554 15 0 0.0 0.0 0.00 0.00 0.00 83 1011.3
20260510030054 16 0 0.0 0.0 0.00 0.00 0.00 83 1011.2
20260510024601 16 0 0.0 0.0 0.00 0.00 0.00 83 1011.1
20260510023056 16 0 0.0 0.0 0.00 0.00 0.00 82 1011.0
20260510021552 16 0 0.0 0.0 0.00 0.00 0.00 81 1010.9
20260510020058 16 0 0.0 0.0 0.00 0.00 0.00 81 1010.6
20260510014600 16 0 0.0 0.0 0.00 0.00 0.00 80 1010.3
20260510013055 17 0 0.0 0.0 0.00 0.00 0.00 80 1010.3
20260510011600 17 0 0.0 0.0 0.00 0.00 0.00 79 1010.1
20260510010058 17 0 0.0 0.0 0.00 0.00 0.00 78 1009.9
20260510004559 18 0 0.0 0.0 0.00 0.00 0.00 77 1009.8
20260510003105 18 0 0.0 0.0 0.00 0.00 0.00 75 1009.6
20260510001557 19 0 0.0 0.0 0.00 0.00 0.00 73 1009.5
20260510000057 20 0 0.0 0.0 0.00 0.00 0.00 72 1009.1
20260509234612 21 0 0.0 0.0 0.00 0.00 0.00 68 1009.0
20260509233104 21 0 0.0 6.4 0.00 0.00 0.00 67 1008.8
20260509231603 22 0 0.0 1.6 0.00 0.00 0.00 64 1008.9
20260509230103 22 0 1.6 8.0 0.00 0.00 0.00 61 1008.9
20260509224603 22 0 0.0 1.6 0.00 0.00 0.00 60 1008.8
20260509223104 22 0 0.0 1.6 0.00 0.00 0.00 60 1008.9
20260509221600 22 0 0.0 6.4 0.00 0.00 0.00 56 1008.8
20260509220057 22 0 0.0 1.6 0.00 0.00 0.00 56 1008.8
20260509214559 23 0 0.0 4.8 0.00 0.00 0.00 54 1008.7
20260509213058 23 103 1.6 4.8 0.00 0.00 0.00 55 1008.6
20260509211557 23 72 0.0 4.8 0.00 0.00 0.00 53 1008.5
20260509210059 23 75 1.6 9.7 0.00 0.00 0.00 53 1008.5
20260509204556 23 0 3.2 9.7 0.00 0.00 0.00 52 1008.5
20260509203058 23 330 0.0 4.8 0.00 0.00 0.00 58 1008.3
20260509201553 23 231 1.6 8.0 0.00 0.00 0.00 56 1008.6
20260509200056 23 79 1.6 4.8 0.00 0.00 0.00 55 1008.7
20260509194553 23 0 0.0 6.4 0.00 0.00 0.00 57 1008.9
20260509193058 23 120 1.6 3.2 0.00 0.00 0.00 55 1009.2
20260509191552 23 265 3.2 9.7 0.00 0.00 0.00 52 1009.3
20260509190055 23 97 0.0 8.0 0.00 0.00 0.00 56 1009.6
20260509184554 23 0 0.0 9.7 0.00 0.00 0.00 56 1009.8
20260509183054 24 301 1.6 8.0 0.00 0.00 0.00 51 1010.0
20260509181607 23 0 0.0 9.7 0.00 0.00 0.00 53 1009.9
20260509180115 23 126 1.6 6.4 0.00 0.00 0.00 51 1010.1
20260509174556 23 338 0.0 8.0 0.00 0.00 0.00 52 1010.2
20260509173110 23 0 1.6 8.0 0.00 0.00 0.00 50 1010.1
20260509171556 23 120 4.8 12.9 0.00 0.00 0.00 52 1010.2
20260509170055 22 98 0.0 14.5 0.00 0.00 0.00 55 1010.6
20260509164554 23 309 1.6 12.9 0.00 0.00 0.00 53 1011.0
20260509163055 22 144 3.2 9.7 0.00 0.00 0.00 52 1011.0